Date,TemperatureHighF,TemperatureAvgF,TemperatureLowF,DewpointHighF,DewpointAvgF,DewpointLowF,HumidityHigh,HumidityAvg,HumidityLow,PressureMaxIn,PressureMinIn,WindSpeedMaxMPH,WindSpeedAvgMPH,GustSpeedMaxMPH,PrecipitationSumIn
2013-11-1,73.9,64.9,55.8,61.0,56.4,46.0,94,76,41,29.78,29.58,6,2,16,0.09
2013-11-2,63.6,56.2,48.0,47.5,39.4,31.8,80,55,35,29.93,29.66,8,2,13,0.00
2013-11-3,55.9,47.4,38.2,38.0,34.3,30.3,74,61,42,30.40,29.92,6,2,14,0.00
2013-11-4,47.9,39.5,30.5,30.7,28.7,25.6,83,66,48,30.60,30.39,4,1,7,0.00
2013-11-5,50.7,42.2,30.8,42.6,34.0,25.7,89,73,58,30.63,30.47,2,0,4,0.00
2013-11-6,63.9,52.8,44.6,50.6,47.0,42.6,96,82,62,30.48,30.09,4,1,9,0.00
2013-11-7,57.5,49.4,40.4,53.7,41.4,25.5,96,76,50,30.13,29.94,9,3,15,0.02
2013-11-8,48.2,40.3,31.2,29.1,25.0,21.7,78,55,36,30.34,30.13,9,3,15,0.00
2013-11-9,54.4,40.1,28.6,30.4,27.2,23.8,84,62,35,30.37,30.14,5,1,9,0.00
2013-11-10,62.9,51.6,39.9,36.4,28.9,20.8,62,43,20,30.27,30.03,9,4,17,0.00
2013-11-11,57.2,45.7,31.7,29.7,26.1,21.8,77,48,29,30.33,30.08,7,1,14,0.00
2013-11-12,54.5,40.8,27.2,35.8,22.6,12.9,59,48,31,30.45,29.99,7,3,11,0.00
2013-11-13,41.8,31.8,25.5,17.5,14.7,11.4,63,50,29,30.55,30.43,7,3,10,0.00
2013-11-14,57.5,40.1,26.4,20.7,15.6,5.4,63,40,18,30.46,30.30,5,1,6,0.00
2013-11-15,60.4,47.1,36.1,47.5,27.9,18.3,96,51,21,30.31,30.18,5,1,6,0.32
2013-11-16,53.4,49.9,46.6,51.1,48.8,45.8,97,96,91,30.28,30.20,3,0,6,0.05
2013-11-17,58.6,54.7,51.7,57.5,53.5,50.9,97,96,92,30.22,29.80,5,1,12,0.10
2013-11-18,62.4,56.7,45.8,58.6,36.9,24.0,96,50,26,29.97,29.75,8,4,18,0.15
2013-11-19,48.6,41.9,35.1,27.6,25.5,24.2,65,52,41,30.34,29.97,7,3,15,0.00
2013-11-20,45.6,37.3,30.2,28.7,24.2,19.4,76,60,36,30.51,30.34,5,1,11,0.00
2013-11-21,47.7,42.6,36.5,41.1,36.2,29.0,85,78,72,30.54,30.42,1,0,3,0.00
2013-11-22,62.7,53.2,44.5,55.6,48.1,40.9,92,83,69,30.42,30.05,4,0,9,0.00
2013-11-23,58.0,45.4,30.0,50.1,30.0,13.1,75,56,31,30.23,30.05,11,4,16,0.00
2013-11-24,29.6,25.0,19.8,15.8,4.8,0.7,63,42,29,30.57,30.23,11,5,19,0.00
2013-11-25,32.7,26.5,17.2,15.9,9.0,5.0,65,48,37,30.58,30.39,5,1,8,0.00
2013-11-26,47.5,34.9,29.0,46.5,31.9,13.1,97,90,48,30.41,29.63,7,1,17,1.35
2013-11-27,44.0,33.5,24.4,42.5,26.8,11.2,96,77,56,30.15,29.57,12,6,24,0.13
2013-11-28,38.4,28.6,23.0,19.8,16.2,11.6,72,60,41,30.48,30.15,9,2,13,0.00
2013-11-29,43.0,33.4,25.5,23.2,20.2,16.5,75,59,42,30.68,30.47,6,1,8,0.00
2013-11-30,36.9,29.1,22.8,23.3,20.8,17.8,83,71,55,30.69,30.40,6,0,11,0.00